Location: Cogollal
(10.0582°N, 67.8466°W)
Time: 14:34:26
(UTC+00:00)

Cosmos 1943 - Visible Passes

Search period start: 12 July 2024 00:00
Search period end: 22 July 2024 00:00
Orbit: 834 x 847 km, 71.0° (Epoch: 12 July)

Date Brightness Start Highest point End Pass type
(mag) Time Alt. Az. Time Alt. Az. Time Alt. Az.
12 Jul 5.4 01:52:45 10° N 01:54:07 18° N 01:54:07 18° N visible
13 Jul 5.1 01:37:25 10° N 01:39:24 22° N 01:39:24 22° N visible
14 Jul 4.7 01:22:05 10° N 01:24:46 28° N 01:24:46 28° N visible
15 Jul 4.2 01:06:46 10° N 01:10:10 35° NNE 01:10:10 35° NNE visible
16 Jul 3.8 00:51:27 10° N 00:55:38 41° NE 00:55:38 41° NE visible
17 Jul 3.6 00:36:08 10° N 00:41:10 43° ENE 00:41:10 43° ENE visible
17 Jul 6.0 02:22:45 10° WNW 02:23:00 10° W 02:23:00 10° W visible
18 Jul 3.6 00:20:50 10° N 00:26:05 40° ENE 00:26:46 39° E visible
18 Jul 5.8 02:06:58 10° WNW 02:08:37 13° W 02:08:37 13° W visible
19 Jul 3.8 00:05:33 10° N 00:10:42 37° ENE 00:12:27 30° ESE visible
19 Jul 5.6 01:51:14 10° WNW 01:54:18 15° WSW 01:54:18 15° WSW visible
19 Jul 3.9 23:50:16 10° N 23:55:20 34° ENE 23:58:13 21° ESE visible
20 Jul 5.4 01:35:34 10° WNW 01:38:59 17° WSW 01:40:03 16° WSW visible
20 Jul 4.0 23:35:00 10° N 23:39:57 32° ENE 23:44:03 14° SE visible
21 Jul 5.4 01:19:56 10° WNW 01:23:38 18° WSW 01:25:54 14° SW visible
21 Jul 4.1 23:19:44 10° NNE 23:24:35 30° ENE 23:29:26 10° SE visible
